Weather History for KBNL - August, 2013

Change the Weather History Date:

Sunday, August 11, 2013

  Actual Average (KOGB) Record (KOGB)
Temperature  
Mean Temperature 85 °F 81 °F  
Max Temperature 95 °F 90 °F 99 °F (1983)
Min Temperature 75 °F 71 °F 61 °F (1954)
Degree Days  
Heating Degree Days 0 0  
Month to date heating degree days 0  
Since 1 June heating degree days 1  
Since 1 July heating degree days 0  
Cooling Degree Days 20 16  
Month to date cooling degree days 180  
Year to date cooling degree days 1402  
Since 1 June cooling degree days 1099  
Growing Degree Days 35 (Base 50)    
Moisture  
Dew Point 72 °F    
Average Humidity 70    
Maximum Humidity 94    
Minimum Humidity 44    
Precipitation  
Precipitation 0.00 in 0.18 in 4.24 in (1970)
Month to date precipitation 1.96  
Year to date precipitation 29.99  
Sea Level Pressure  
Sea Level Pressure 30.12 in    
Wind  
Wind Speed 3 mph (WSW)    
Max Wind Speed 15 mph    
Max Gust Speed 20 mph    
Visibility 10 miles    
Events      
T = Trace of Precipitation, MM = Missing Value Source: NWS Daily Summary

Daily Weather History Graph

Daily Weather History Graph

Search for Another Location

Airport or City:

Trip Planner

Search our weather history database for the weather conditions in past years. The results will help you decide how hot, cold, wet, or windy it might be!

Date:

Astronomy

Aug. 11, 2013 Rise Set
Actual Time 6:45 AM EDT 8:15 PM EDT
Civil Twilight 6:19 AM EDT 8:41 PM EDT
Nautical Twilight 5:47 AM EDT 9:13 PM EDT
Astronomical Twilight 5:14 AM EDT 9:46 PM EDT
Moon 11:13 AM EDT (8/11) 10:49 PM EDT (8/11)
Length of Visible Light 14h 22m
Length of Day
13h 29m
Waxing Crescent, 22% of the Moon is Illuminated
Aug 11
Waxing Crescent
Aug 14
First Quarter
Aug 20
Full
Aug 28
Last Quarter
Sep 5
New

Hourly Weather History & Observations

Time (EDT) Temp. Heat Index Dew Point Humidity Pressure Visibility Wind Dir Wind Speed Gust Speed Precip Events Conditions
12:15 AM 78.8 °F - 73.4 °F 83% 30.12 in 10.0 mi Calm Calm - N/A   Clear
12:35 AM 78.8 °F - 73.4 °F 83% 30.12 in 10.0 mi Calm Calm - N/A   Clear
12:55 AM 78.8 °F - 73.4 °F 83% 30.12 in 10.0 mi Calm Calm - N/A   Clear
1:15 AM 78.8 °F - 73.4 °F 83% 30.12 in 10.0 mi Calm Calm - N/A   Clear
1:35 AM 78.8 °F - 73.4 °F 83% 30.12 in 10.0 mi Calm Calm - N/A   Clear
1:55 AM 78.8 °F - 73.4 °F 83% 30.12 in 10.0 mi Calm Calm - N/A   Clear
2:15 AM 78.8 °F - 73.4 °F 83% 30.12 in 10.0 mi Calm Calm - N/A   Clear
2:35 AM 78.8 °F - 73.4 °F 83% 30.12 in 10.0 mi Calm Calm - N/A   Clear
2:55 AM 77.0 °F - 73.4 °F 89% 30.13 in 10.0 mi Calm Calm - N/A   Clear
3:15 AM 75.2 °F - 73.4 °F 94% 30.13 in 10.0 mi Calm Calm - N/A   Clear
3:35 AM 75.2 °F - 73.4 °F 94% 30.12 in 10.0 mi Calm Calm - N/A   Clear
3:55 AM 75.2 °F - 73.4 °F 94% 30.13 in 10.0 mi Calm Calm - N/A   Scattered Clouds
4:15 AM 75.2 °F - 73.4 °F 94% 30.13 in 10.0 mi Calm Calm - N/A   Scattered Clouds
4:35 AM 75.2 °F - 73.4 °F 94% 30.13 in 10.0 mi Calm Calm - N/A   Clear
4:55 AM 75.2 °F - 73.4 °F 94% 30.13 in 10.0 mi Calm Calm - N/A   Clear
5:15 AM 75.2 °F - 73.4 °F 94% 30.13 in 10.0 mi Calm Calm - N/A   Clear
5:35 AM 75.2 °F - 73.4 °F 94% 30.13 in 10.0 mi Calm Calm - N/A   Clear
5:55 AM 75.2 °F - 73.4 °F 94% 30.14 in 10.0 mi Calm Calm - N/A   Clear
6:15 AM 75.2 °F - 73.4 °F 94% 30.14 in 10.0 mi Calm Calm - N/A   Clear
6:35 AM 75.2 °F - 73.4 °F 94% 30.15 in 10.0 mi Calm Calm - N/A   Clear
6:55 AM 75.2 °F - 73.4 °F 94% 30.15 in 10.0 mi Calm Calm - N/A   Clear
7:15 AM 75.2 °F - 73.4 °F 94% 30.16 in 10.0 mi Calm Calm - N/A   Clear
7:35 AM 75.2 °F - 73.4 °F 94% 30.16 in 10.0 mi Calm Calm - N/A   Clear
7:55 AM 77.0 °F - 75.2 °F 94% 30.16 in 10.0 mi Calm Calm - N/A   Clear
8:15 AM 78.8 °F - 73.4 °F 83% 30.16 in 10.0 mi WSW 5.8 mph - N/A   Clear
8:35 AM 78.8 °F - 75.2 °F 89% 30.16 in 10.0 mi WSW 6.9 mph - N/A   Clear
8:55 AM 80.6 °F 86.2 °F 75.2 °F 84% 30.16 in 10.0 mi WSW 6.9 mph - N/A   Clear
9:15 AM 82.4 °F 89.5 °F 75.2 °F 79% 30.16 in 10.0 mi WSW 4.6 mph - N/A   Clear
9:35 AM 84.2 °F 90.9 °F 73.4 °F 70% 30.16 in 10.0 mi WSW 8.1 mph - N/A   Clear
9:55 AM 84.2 °F 92.3 °F 75.2 °F 74% 30.16 in 10.0 mi West 4.6 mph - N/A   Clear
10:15 AM 87.8 °F 97.6 °F 75.2 °F 66% 30.16 in 10.0 mi West 8.1 mph - N/A   Clear
10:35 AM 89.6 °F 98.2 °F 73.4 °F 59% 30.16 in 10.0 mi West 8.1 mph - N/A   Clear
10:55 AM 89.6 °F 98.2 °F 73.4 °F 59% 30.17 in 10.0 mi West 5.8 mph - N/A   Clear
11:15 AM 89.6 °F 96.2 °F 71.6 °F 55% 30.16 in 10.0 mi West 6.9 mph - N/A   Clear
11:35 AM 89.6 °F 96.2 °F 71.6 °F 55% 30.16 in 10.0 mi WSW 10.4 mph - N/A   Clear
11:55 AM 91.4 °F 96.8 °F 69.8 °F 49% 30.16 in 10.0 mi WSW 15.0 mph 19.6 mph N/A   Clear
12:15 PM 91.4 °F 96.8 °F 69.8 °F 49% 30.16 in 10.0 mi WSW 10.4 mph 16.1 mph N/A   Clear
12:35 PM 93.2 °F 98.8 °F 69.8 °F 46% 30.15 in 10.0 mi WSW 13.8 mph 18.4 mph N/A   Clear
12:55 PM 93.2 °F 98.8 °F 69.8 °F 46% 30.15 in 10.0 mi West 11.5 mph 16.1 mph N/A   Clear
1:15 PM 93.2 °F 98.8 °F 69.8 °F 46% 30.14 in 10.0 mi West 9.2 mph - N/A   Partly Cloudy
1:35 PM 91.4 °F 96.8 °F 69.8 °F 49% 30.13 in 10.0 mi West 6.9 mph - N/A   Partly Cloudy
1:55 PM 93.2 °F 98.8 °F 69.8 °F 46% 30.13 in 10.0 mi WNW 5.8 mph - N/A   Clear
2:15 PM 93.2 °F 98.8 °F 69.8 °F 46% 30.13 in 10.0 mi West 9.2 mph - N/A   Clear
2:35 PM 95.0 °F 101.3 °F 69.8 °F 44% 30.12 in 10.0 mi SW 8.1 mph - N/A   Clear
2:55 PM 93.2 °F 98.8 °F 69.8 °F 46% 30.11 in 10.0 mi West 8.1 mph - N/A   Partly Cloudy
3:15 PM 95.0 °F 101.3 °F 69.8 °F 44% 30.10 in 10.0 mi WSW 6.9 mph - N/A   Clear
3:35 PM 93.2 °F 98.8 °F 69.8 °F 46% 30.09 in 10.0 mi West 5.8 mph - N/A   Partly Cloudy
3:55 PM 93.2 °F 100.5 °F 71.6 °F 49% 30.09 in 10.0 mi WSW 6.9 mph - N/A   Scattered Clouds
4:15 PM 93.2 °F 100.5 °F 71.6 °F 49% 30.08 in 10.0 mi WSW 8.1 mph - N/A   Partly Cloudy
4:35 PM 93.2 °F 98.8 °F 69.8 °F 46% 30.08 in 10.0 mi West 6.9 mph - N/A   Clear
4:55 PM 95.0 °F 101.3 °F 69.8 °F 44% 30.07 in 10.0 mi WSW 8.1 mph - N/A   Partly Cloudy
5:15 PM 95.0 °F 101.3 °F 69.8 °F 44% 30.07 in 10.0 mi WSW 5.8 mph - N/A   Clear
5:35 PM 93.2 °F 98.8 °F 69.8 °F 46% 30.07 in 10.0 mi West 6.9 mph - N/A   Clear
5:55 PM 93.2 °F 98.8 °F 69.8 °F 46% 30.07 in 10.0 mi WSW 6.9 mph - N/A   Clear
6:15 PM 91.4 °F 96.8 °F 69.8 °F 49% 30.07 in 10.0 mi SW 5.8 mph - N/A   Partly Cloudy
6:35 PM 93.2 °F 98.8 °F 69.8 °F 46% 30.08 in 10.0 mi West 6.9 mph - N/A   Partly Cloudy
6:55 PM 91.4 °F 96.8 °F 69.8 °F 49% 30.08 in 10.0 mi WSW 4.6 mph - N/A   Partly Cloudy
7:15 PM 91.4 °F 98.4 °F 71.6 °F 52% 30.07 in 10.0 mi WSW 4.6 mph - N/A   Clear
7:35 PM 89.6 °F 96.2 °F 71.6 °F 55% 30.07 in 10.0 mi Calm Calm - N/A   Clear
7:55 PM 89.6 °F 96.2 °F 71.6 °F 55% 30.07 in 10.0 mi SW 3.5 mph - N/A   Clear
8:15 PM 87.8 °F 95.6 °F 73.4 °F 62% 30.07 in 10.0 mi SW 3.5 mph - N/A   Clear
8:35 PM 84.2 °F 90.9 °F 73.4 °F 70% 30.07 in 10.0 mi Calm Calm - N/A   Clear
8:55 PM 82.4 °F 89.5 °F 75.2 °F 79% 30.07 in 10.0 mi Calm Calm - N/A   Clear
9:15 PM 82.4 °F 89.5 °F 75.2 °F 79% 30.08 in 10.0 mi Calm Calm - N/A   Clear
9:35 PM 80.6 °F 86.2 °F 75.2 °F 84% 30.08 in 10.0 mi Calm Calm - N/A   Clear
9:55 PM 80.6 °F 86.2 °F 75.2 °F 84% 30.10 in 10.0 mi Calm Calm - N/A   Clear
10:15 PM 80.6 °F 85.4 °F 73.4 °F 79% 30.11 in 10.0 mi Calm Calm - N/A   Clear
10:35 PM 80.6 °F 85.4 °F 73.4 °F 79% 30.11 in 10.0 mi Calm Calm - N/A   Clear
10:55 PM 80.6 °F 85.4 °F 73.4 °F 79% 30.12 in 10.0 mi Calm Calm - N/A   Clear
11:15 PM 78.8 °F - 73.4 °F 83% 30.12 in 10.0 mi Calm Calm - N/A   Clear
11:35 PM 78.8 °F - 73.4 °F 83% 30.11 in 10.0 mi Calm Calm - N/A   Clear
11:55 PM 78.8 °F - 73.4 °F 83% 30.11 in 10.0 mi Calm Calm - N/A   Clear